Location: Wyalusing
(42.9440°N, 91.1410°W)
Time: 14:09:16
(UTC-06:00)

N. Korean satellite - Visible Passes

Search period start: 23 November 2017 00:00
Search period end: 03 December 2017 00:00
Orbit: 460 x 514 km, 97.2° (Epoch: 22 November)

Date Brightness Start Highest point End Pass type
(mag) Time Alt. Az. Time Alt. Az. Time Alt. Az.
23 Nov 7.4 17:25:10 10° SE 17:28:13 28° ENE 17:31:21 10° N visible
23 Nov 9.5 18:59:21 10° SW 19:01:47 17° W 19:04:15 10° NW visible
24 Nov 8.7 06:24:27 10° NNE 06:27:55 34° E 06:31:22 10° SSE visible
24 Nov 8.3 18:34:55 10° SSW 18:38:09 33° W 18:41:27 10° NNW visible
25 Nov 9.8 06:01:35 10° NE 06:04:17 19° E 06:06:58 10° SE visible
25 Nov 6.8 18:11:04 10° S 18:14:35 70° W 18:18:12 10° NNW visible
26 Nov 6.6 17:47:38 10° SSE 17:51:07 56° ENE 17:54:40 10° N visible
27 Nov 7.4 17:24:37 10° SE 17:27:42 28° ENE 17:30:52 10° N visible
27 Nov 9.5 18:58:47 10° SW 19:01:16 18° W 19:03:48 10° NW visible
28 Nov 8.6 06:23:56 10° NNE 06:27:25 34° E 06:30:51 10° SSE visible
28 Nov 8.2 17:02:09 10° ESE 17:04:23 16° ENE 17:06:39 10° NNE visible
28 Nov 8.3 18:34:21 10° SSW 18:37:36 34° W 18:40:57 10° NNW visible
29 Nov 9.8 06:01:04 10° NE 06:03:46 18° E 06:06:27 10° SE visible
29 Nov 6.8 18:10:29 10° S 18:14:02 71° W 18:17:41 10° NNW visible
30 Nov 6.6 17:47:02 10° SSE 17:50:32 56° ENE 17:54:07 10° N visible
01 Dec 7.4 17:23:59 10° SE 17:27:07 28° ENE 17:30:19 10° N visible
01 Dec 9.4 18:58:06 10° SW 19:00:40 18° W 19:03:16 10° NW visible
02 Dec 8.6 06:23:22 10° NNE 06:26:50 34° E 06:30:16 10° SSE visible
02 Dec 8.2 17:01:31 10° ESE 17:03:47 16° ENE 17:06:05 10° NNE visible
02 Dec 8.3 18:33:41 10° SSW 18:37:00 34° W 18:40:23 10° NNW visible
